Flag for United Arab Emirates Weather past 2 weeks in Abu Dhabi, Abu Dhabi, United Arab Emirates

Now
102 °F

Passing clouds.


Feels Like: 102 °F
Forecast: 92 / 100 °F
Wind: 9 mph from North

Location: Abu Dhabi Bateen Airport

Current Time: May 26, 2015 at 1:04:11 PM

Latest Report: May 26, 2015 at 12:00 PM


Visibility: N/A

Pressure: 29.74 "Hg

Humidity: 23%

Dew point: 57 °F

Location of Abu DhabiLocation

Historic Weather in Abu Dhabi — Graph

°F

Abu Dhabi temperature yesterday

Maximum temperature yesterday: 108 °F (at 1:00 PM)
Minimum temperature yesterday: 86 °F (at 4:00 AM)
Average temperature yesterday: 95 °F

Past Weeks' High & Low Weather Summary

 TemperatureHumidityPressure
High111 °F (May 13, 2:00 PM)89% (May 20, 4:00 AM)29.83 "Hg (May 20, 4:00 AM)
Low77 °F (May 19, 8:00 AM)6% (May 14, 1:00 PM)29.62 "Hg (May 16, 5:00 PM)
Average92 °F42%29.70 "Hg
* Reported May 11 12:00 Noon — May 26 12:00 Noon, Abu Dhabi, Weather by CustomWeather, © 2015

Note: Actual official high and low records may vary slightly from our data, if they occured in-between our weather recording intervals... More about our weather records

Advertising

Abu Dhabi weather history for previous 24 hours

 ConditionsComfort  
Time TempWeatherWind HumidityBarometerVisibility
12:00 PM
Tue, May 26
102 °FPassing clouds.9 mph23%29.74 "HgN/A
11:00 AM100 °FPassing clouds.12 mph21%29.74 "HgN/A
10:00 AM97 °FPassing clouds.5 mph42%29.74 "HgN/A
9:00 AM95 °FPassing clouds.3 mph47%29.74 "HgN/A
8:00 AM93 °FSunny.6 mph41%29.74 "Hg10 mi
7:00 AM88 °FPassing clouds.3 mph62%29.71 "HgN/A
6:00 AM84 °FPassing clouds.3 mph74%29.68 "HgN/A
5:00 AM84 °FClear.3 mph74%29.68 "Hg10 mi
4:00 AM86 °FClear.5 mph75%29.65 "Hg10 mi
3:00 AM90 °FClear.2 mph49%29.65 "Hg10 mi
2:00 AM91 °FClear.5 mph38%29.65 "Hg10 mi
1:00 AM91 °FClear.8 mph36%29.68 "Hg10 mi
12:00 AM91 °FClear.6 mph41%29.68 "Hg10 mi
11:00 PM
Mon, May 25
93 °FClear.6 mph41%29.71 "Hg10 mi
10:00 PM93 °FClear.1 mph34%29.71 "Hg10 mi
9:00 PM93 °FClear.7 mph39%29.68 "Hg10 mi
8:00 PM95 °FClear.9 mph39%29.65 "Hg10 mi
7:00 PM95 °FSunny.9 mph39%29.65 "Hg10 mi
6:00 PM97 °FSunny.10 mph37%29.65 "Hg10 mi
5:00 PM99 °FSunny.15 mph35%29.65 "Hg10 mi
4:00 PM100 °FSunny.14 mph33%29.65 "Hg10 mi
3:00 PM104 °FSunny.16 mph24%29.68 "Hg10 mi
2:00 PM102 °FSunny.15 mph24%29.68 "Hg10 mi
1:00 PM108 °FPassing clouds.10 mph14%29.71 "HgN/A
Weather by CustomWeather, © 2015

See weather overviewHow to use our weather pages